| time (UTC) | temp C | wind direction | speed KPH | gust KPH | rain 1hr cm | rain 24hr cm | rain mn cm | humidity % | barometer mb |
| 20260505190007 | 23 | 129 | 16.1 | 33.8 | 0.00 | 0.00 | 0.00 | 45 | 1002.5 |
| 20260505184508 | 24 | 146 | 16.1 | 30.6 | 0.00 | 0.00 | 0.00 | 44 | 1003.0 |
| 20260505183014 | 23 | 114 | 25.7 | 38.6 | 0.00 | 0.00 | 0.00 | 47 | 1003.1 |
| 20260505181508 | 23 | 130 | 14.5 | 27.4 | 0.00 | 0.00 | 0.00 | 47 | 1003.1 |
| 20260505180007 | 22 | 160 | 14.5 | 30.6 | 0.00 | 0.00 | 0.00 | 50 | 1003.4 |
| 20260505174510 | 22 | 131 | 20.9 | 38.6 | 0.00 | 0.00 | 0.00 | 50 | 1003.5 |
| 20260505173012 | 22 | 121 | 19.3 | 27.4 | 0.00 | 0.00 | 0.00 | 51 | 1003.7 |
| 20260505171512 | 23 | 138 | 14.5 | 32.2 | 0.00 | 0.00 | 0.00 | 50 | 1004.2 |
| 20260505170007 | 22 | 117 | 19.3 | 38.6 | 0.00 | 0.00 | 0.00 | 52 | 1004.5 |
| 20260505164508 | 21 | 124 | 19.3 | 32.2 | 0.00 | 0.00 | 0.00 | 53 | 1004.7 |
| 20260505163008 | 20 | 128 | 20.9 | 38.6 | 0.00 | 0.00 | 0.00 | 56 | 1004.9 |
| 20260505161508 | 20 | 142 | 22.5 | 37.0 | 0.00 | 0.00 | 0.00 | 57 | 1005.1 |
| 20260505153010 | 20 | 107 | 19.3 | 35.4 | 0.00 | 0.00 | 0.00 | 56 | 1005.6 |
| 20260505151513 | 20 | 120 | 16.1 | 25.7 | 0.00 | 0.00 | 0.00 | 54 | 1006.0 |
| 20260505124536 | 15 | 111 | 6.4 | 12.9 | 0.00 | 0.00 | 0.00 | 65 | 1007.6 |
| 20260505123026 | 14 | 99 | 3.2 | 6.4 | 0.00 | 0.00 | 0.00 | 68 | 1007.5 |
| 20260505121528 | 13 | 48 | 1.6 | 4.8 | 0.00 | 0.00 | 0.00 | 69 | 1007.3 |
| 20260505120032 | 12 | 48 | 1.6 | 4.8 | 0.00 | 0.00 | 0.00 | 72 | 1007.4 |
| 20260505114527 | 10 | 48 | 0.0 | 3.2 | 0.00 | 0.00 | 0.00 | 80 | 1007.6 |
| 20260505113028 | 8 | 48 | 1.6 | 4.8 | 0.00 | 0.00 | 0.00 | 85 | 1007.7 |
| 20260505111508 | 7 | 30 | 1.6 | 4.8 | 0.00 | 0.00 | 0.00 | 88 | 1007.7 |
| 20260505101515 | 6 | 360 | 0.0 | 4.8 | 0.00 | 0.00 | 0.00 | 88 | 1007.6 |
| 20260505100010 | 6 | 360 | 0.0 | 3.2 | 0.00 | 0.00 | 0.00 | 89 | 1007.6 |
| 20260505094506 | 6 | 360 | 0.0 | 1.6 | 0.00 | 0.00 | 0.00 | 88 | 1007.7 |
| 20260505093021 | 6 | 360 | 0.0 | 3.2 | 0.00 | 0.00 | 0.00 | 88 | 1007.4 |
| 20260505091507 | 6 | 360 | 0.0 | 3.2 | 0.00 | 0.00 | 0.00 | 87 | 1007.5 |
| 20260505090007 | 6 | 360 | 3.2 | 6.4 | 0.00 | 0.00 | 0.00 | 87 | 1007.6 |
| 20260505084508 | 6 | 360 | 1.6 | 4.8 | 0.00 | 0.00 | 0.00 | 86 | 1007.7 |
| 20260505083008 | 6 | 360 | 0.0 | 8.0 | 0.00 | 0.00 | 0.00 | 86 | 1007.7 |
| 20260505081528 | 7 | 360 | 0.0 | 4.8 | 0.00 | 0.00 | 0.00 | 86 | 1007.9 |
| 20260505080027 | 6 | 360 | 1.6 | 6.4 | 0.00 | 0.00 | 0.00 | 88 | 1007.9 |
| 20260505074527 | 6 | 360 | 1.6 | 4.8 | 0.00 | 0.00 | 0.00 | 87 | 1007.9 |
| 20260505073025 | 6 | 360 | 0.0 | 8.0 | 0.00 | 0.00 | 0.00 | 88 | 1007.8 |
| 20260505071526 | 6 | 360 | 0.0 | 8.0 | 0.00 | 0.00 | 0.00 | 87 | 1007.8 |
| 20260505070034 | 6 | 360 | 3.2 | 8.0 | 0.00 | 0.00 | 0.00 | 86 | 1007.9 |
| 20260505064525 | 6 | 360 | 1.6 | 4.8 | 0.00 | 0.00 | 0.00 | 86 | 1008.0 |
| 20260505063028 | 6 | 360 | 0.0 | 6.4 | 0.00 | 0.00 | 0.00 | 87 | 1008.1 |
| 20260505061534 | 6 | 360 | 0.0 | 6.4 | 0.00 | 0.00 | 0.00 | 87 | 1008.0 |
| 20260505060028 | 6 | 360 | 1.6 | 4.8 | 0.00 | 0.00 | 0.00 | 87 | 1007.9 |
| 20260505054526 | 6 | 360 | 1.6 | 6.4 | 0.00 | 0.00 | 0.00 | 87 | 1008.0 |
| 20260505053035 | 6 | 360 | 0.0 | 4.8 | 0.00 | 0.00 | 0.00 | 87 | 1007.8 |
| 20260505051546 | 6 | 360 | 1.6 | 3.2 | 0.00 | 0.00 | 0.00 | 85 | 1007.7 |
| 20260505041532 | 7 | 360 | 0.0 | 3.2 | 0.00 | 0.00 | 0.00 | 84 | 1007.5 |
| 20260505040027 | 8 | 360 | 0.0 | 3.2 | 0.00 | 0.00 | 0.00 | 78 | 1007.3 |
| 20260505034530 | 8 | 360 | 0.0 | 3.2 | 0.00 | 0.00 | 0.00 | 78 | 1007.2 |
| 20260505033029 | 8 | 360 | 0.0 | 3.2 | 0.00 | 0.00 | 0.00 | 78 | 1006.9 |
| 20260505031529 | 9 | 360 | 0.0 | 4.8 | 0.00 | 0.00 | 0.00 | 77 | 1006.9 |
| 20260505030030 | 9 | 360 | 0.0 | 3.2 | 0.00 | 0.00 | 0.00 | 75 | 1006.8 |
| 20260505024527 | 10 | 360 | 0.0 | 3.2 | 0.00 | 0.00 | 0.00 | 75 | 1006.9 |
| 20260505023028 | 10 | 360 | 1.6 | 6.4 | 0.00 | 0.00 | 0.00 | 73 | 1007.1 |
| 20260505021505 | 11 | 360 | 1.6 | 4.8 | 0.00 | 0.00 | 0.00 | 72 | 1007.1 |
| 20260505020008 | 11 | 360 | 0.0 | 4.8 | 0.00 | 0.00 | 0.00 | 66 | 1007.1 |
| 20260505014504 | 12 | 360 | 1.6 | 3.2 | 0.00 | 0.00 | 0.00 | 65 | 1006.9 |
| 20260505013004 | 12 | 360 | 1.6 | 4.8 | 0.00 | 0.00 | 0.00 | 66 | 1006.6 |
| 20260505011504 | 12 | 5 | 0.0 | 4.8 | 0.00 | 0.00 | 0.00 | 62 | 1006.5 |
| 20260505010005 | 13 | 5 | 3.2 | 4.8 | 0.00 | 0.00 | 0.00 | 64 | 1006.2 |
| 20260505004508 | 13 | 360 | 0.0 | 3.2 | 0.00 | 0.00 | 0.00 | 58 | 1006.0 |
| 20260505003017 | 15 | 228 | 0.0 | 3.2 | 0.00 | 0.00 | 0.00 | 55 | 1005.7 |
| 20260505001506 | 15 | 228 | 0.0 | 4.8 | 0.00 | 0.00 | 0.00 | 52 | 1005.5 |
| 20260505000006 | 17 | 224 | 0.0 | 1.6 | 0.00 | 0.00 | 0.00 | 48 | 1005.3 |
| 20260504234506 | 17 | 224 | 1.6 | 3.2 | 0.00 | 0.00 | 0.00 | 45 | 1005.0 |
| 20260504233007 | 18 | 225 | 0.0 | 3.2 | 0.00 | 0.00 | 0.00 | 45 | 1004.8 |
| 20260504231506 | 18 | 225 | 1.6 | 6.4 | 0.00 | 0.00 | 0.00 | 43 | 1004.8 |
| 20260504230004 | 18 | 244 | 3.2 | 16.1 | 0.00 | 0.00 | 0.00 | 42 | 1004.7 |
| 20260504224507 | 18 | 228 | 3.2 | 12.9 | 0.00 | 0.00 | 0.00 | 43 | 1004.6 |
| 20260504223005 | 18 | 234 | 4.8 | 12.9 | 0.00 | 0.00 | 0.00 | 41 | 1004.3 |
| 20260504221510 | 18 | 159 | 4.8 | 16.1 | 0.00 | 0.00 | 0.00 | 43 | 1004.4 |
| 20260504220006 | 18 | 277 | 8.0 | 20.9 | 0.00 | 0.00 | 0.00 | 42 | 1004.4 |
| 20260504214507 | 18 | 193 | 4.8 | 9.7 | 0.00 | 0.00 | 0.00 | 44 | 1004.6 |
| 20260504213008 | 18 | 149 | 4.8 | 9.7 | 0.00 | 0.00 | 0.00 | 47 | 1004.5 |
| 20260504211509 | 18 | 128 | 4.8 | 12.9 | 0.00 | 0.00 | 0.00 | 47 | 1004.5 |
| 20260504210007 | 18 | 228 | 4.8 | 19.3 | 0.00 | 0.00 | 0.00 | 46 | 1004.6 |
| 20260504204510 | 17 | 169 | 3.2 | 14.5 | 0.00 | 0.00 | 0.00 | 48 | 1004.6 |
| 20260504203019 | 16 | 156 | 1.6 | 9.7 | 0.00 | 0.00 | 0.00 | 52 | 1004.6 |
| 20260504201510 | 16 | 165 | 4.8 | 14.5 | 0.00 | 0.00 | 0.00 | 54 | 1004.7 |
| 20260504200011 | 16 | 161 | 3.2 | 9.7 | 0.00 | 0.00 | 0.00 | 53 | 1004.8 |
| 20260504194514 | 17 | 283 | 8.0 | 25.7 | 0.00 | 0.00 | 0.00 | 52 | 1004.9 |
| 20260504193017 | 16 | 307 | 4.8 | 9.7 | 0.00 | 0.00 | 0.00 | 55 | 1005.2 |
| 20260504191522 | 15 | 165 | 3.2 | 9.7 | 0.00 | 0.00 | 0.00 | 59 | 1005.3 |